Time,TemperatureF,DewpointF,PressureIn,WindDirection,WindDirectionDegrees,WindSpeedMPH,WindSpeedGustMPH,Humidity,HourlyPrecipIn,Conditions,Clouds,dailyrainin,SoftwareType,DateUTC
2013-09-20 00:14:00,69.0,-99.9,29.76,South,177,7.0,15.0,-999,-99.99,,,-99.99,,2013-09-20 04:14:00,
2013-09-20 00:24:00,69.0,-99.9,29.76,South,177,7.0,15.0,-999,-99.99,,,-99.99,,2013-09-20 04:24:00,
2013-09-20 00:44:00,69.0,-99.9,29.76,South,177,7.0,18.0,-999,-99.99,,,-99.99,,2013-09-20 04:44:00,
2013-09-20 00:54:00,69.0,-99.9,29.76,South,177,7.0,18.0,-999,-99.99,,,-99.99,,2013-09-20 04:54:00,
2013-09-20 01:13:00,69.0,-99.9,29.76,South,177,7.0,18.0,-999,-99.99,,,-99.99,,2013-09-20 05:13:00,
2013-09-20 01:23:00,69.0,-99.9,29.75,South,173,9.0,23.0,-999,-99.99,,,-99.99,,2013-09-20 05:23:00,
2013-09-20 01:34:00,69.0,-99.9,29.75,South,173,9.0,23.0,-999,-99.99,,,-99.99,,2013-09-20 05:34:00,
2013-09-20 01:53:00,69.0,-99.9,29.75,South,173,9.0,23.0,-999,-99.99,,,-99.99,,2013-09-20 05:53:00,
2013-09-20 02:43:00,68.0,-99.9,29.75,South,183,8.0,21.0,-999,-99.99,,,-99.99,,2013-09-20 06:43:00,
2013-09-20 02:52:00,68.0,-99.9,29.75,South,183,8.0,21.0,-999,-99.99,,,-99.99,,2013-09-20 06:52:00,
2013-09-20 03:12:00,69.0,-99.9,29.76,South,184,5.0,14.0,-999,-99.99,,,-99.99,,2013-09-20 07:12:00,
2013-09-20 03:23:00,69.0,-99.9,29.73,SSE,168,6.0,16.0,-999,-99.99,,,-99.99,,2013-09-20 07:23:00,
2013-09-20 03:32:00,69.0,-99.9,29.73,SSE,168,6.0,16.0,-999,-99.99,,,-99.99,,2013-09-20 07:32:00,
2013-09-20 03:42:00,69.0,-99.9,29.73,SSE,168,6.0,16.0,-999,-99.99,,,-99.99,,2013-09-20 07:42:00,
2013-09-20 03:53:00,69.0,-99.9,29.73,SSE,168,6.0,16.0,-999,-99.99,,,-99.99,,2013-09-20 07:53:00,
2013-09-20 04:02:00,69.0,-99.9,29.73,SSE,168,6.0,16.0,-999,-99.99,,,-99.99,,2013-09-20 08:02:00,
2013-09-20 04:22:00,68.0,-99.9,29.70,South,173,7.0,20.0,-999,-99.99,,,-99.99,,2013-09-20 08:22:00,
2013-09-20 04:52:00,68.0,-99.9,29.70,South,173,7.0,20.0,-999,-99.99,,,-99.99,,2013-09-20 08:52:00,
2013-09-20 05:12:00,67.0,-99.9,29.72,South,191,12.0,19.0,-999,-99.99,,,-99.99,,2013-09-20 09:12:00,
2013-09-20 05:22:00,67.0,-99.9,-100.00,SSW,197,7.0,21.0,-999,-99.99,,,-99.99,,2013-09-20 09:22:00,
2013-09-20 05:54:00,67.0,-99.9,29.71,SSW,197,7.0,21.0,-999,-99.99,,,-99.99,,2013-09-20 09:54:00,
2013-09-20 06:13:00,67.0,-99.9,29.71,South,183,6.0,12.0,-999,-99.99,,,-99.99,,2013-09-20 10:13:00,
2013-09-20 06:23:00,67.0,-99.9,29.71,South,183,6.0,12.0,-999,-99.99,,,-99.99,,2013-09-20 10:23:00,
2013-09-20 06:32:00,67.0,-99.9,29.71,South,183,6.0,12.0,-999,-99.99,,,-99.99,,2013-09-20 10:32:00,
2013-09-20 06:53:00,67.0,-99.9,29.70,South,171,5.0,16.0,-999,-99.99,,,-99.99,,2013-09-20 10:53:00,
2013-09-20 07:12:00,67.0,-99.9,29.68,South,186,6.0,14.0,-999,-99.99,,,-99.99,,2013-09-20 11:12:00,
2013-09-20 07:23:00,67.0,-99.9,29.68,South,186,6.0,14.0,-999,-99.99,,,-99.99,,2013-09-20 11:23:00,
2013-09-20 07:42:00,68.0,-99.9,29.68,South,180,4.0,15.0,-999,-99.99,,,-99.99,,2013-09-20 11:42:00,
2013-09-20 07:52:00,68.0,-99.9,29.68,South,180,4.0,15.0,-999,-99.99,,,-99.99,,2013-09-20 11:52:00,
2013-09-20 08:22:00,68.0,-99.9,29.69,SSW,193,6.0,14.0,-999,-99.99,,,-99.99,,2013-09-20 12:22:00,
2013-09-20 08:52:00,68.0,-99.9,29.69,SSW,200,5.0,14.0,-999,-99.99,,,-99.99,,2013-09-20 12:52:00,
2013-09-20 09:12:00,68.0,-99.9,29.69,SW,215,7.0,12.0,-999,-99.99,,,-99.99,,2013-09-20 13:12:00,
2013-09-20 09:22:00,68.0,-99.9,29.69,SSW,200,5.0,14.0,-999,-99.99,,,-99.99,,2013-09-20 13:22:00,
2013-09-20 09:32:00,68.0,-99.9,29.69,SSW,200,5.0,14.0,-999,-99.99,,,-99.99,,2013-09-20 13:32:00,
2013-09-20 09:53:00,68.0,-99.9,29.70,SW,235,16.0,23.0,-999,-99.99,,,-99.99,,2013-09-20 13:53:00,
2013-09-20 10:02:00,68.0,-99.9,29.70,SW,235,16.0,23.0,-999,-99.99,,,-99.99,,2013-09-20 14:02:00,
2013-09-20 10:22:00,68.0,-99.9,29.69,SW,236,19.0,25.0,-999,-99.99,,,-99.99,,2013-09-20 14:22:00,
2013-09-20 10:52:00,68.0,-99.9,29.70,SW,235,16.0,23.0,-999,-99.99,,,-99.99,,2013-09-20 14:52:00,
2013-09-20 11:12:00,67.0,-99.9,29.70,WSW,239,20.0,25.0,-999,-99.99,,,-99.99,,2013-09-20 15:12:00,
2013-09-20 11:22:00,67.0,-99.9,29.70,WSW,239,20.0,25.0,-999,-99.99,,,-99.99,,2013-09-20 15:22:00,
2013-09-20 11:44:00,67.0,-99.9,-100.00,WSW,239,20.0,28.0,-999,-99.99,,,-99.99,,2013-09-20 15:44:00,
2013-09-20 11:54:00,67.0,-99.9,29.70,WSW,239,20.0,28.0,-999,-99.99,,,-99.99,,2013-09-20 15:54:00,
2013-09-20 12:04:00,67.0,-99.9,29.70,WSW,239,20.0,28.0,-999,-99.99,,,-99.99,,2013-09-20 16:04:00,
2013-09-20 12:23:00,67.0,-99.9,29.71,WSW,238,21.0,26.0,-999,-99.99,,,-99.99,,2013-09-20 16:23:00,
2013-09-20 12:43:00,67.0,-99.9,29.71,WSW,238,21.0,28.0,-999,-99.99,,,-99.99,,2013-09-20 16:43:00,
2013-09-20 13:13:00,67.0,-99.9,29.70,WSW,239,19.0,23.0,-999,-99.99,,,-99.99,,2013-09-20 17:13:00,
2013-09-20 13:24:00,67.0,-99.9,29.70,WSW,239,19.0,23.0,-999,-99.99,,,-99.99,,2013-09-20 17:24:00,
2013-09-20 13:43:00,67.0,-99.9,29.70,WSW,244,19.0,27.0,-999,-99.99,,,-99.99,,2013-09-20 17:43:00,
2013-09-20 13:53:00,67.0,-99.9,29.70,WSW,244,19.0,27.0,-999,-99.99,,,-99.99,,2013-09-20 17:53:00,
2013-09-20 14:22:00,67.0,-99.9,29.70,WSW,244,19.0,27.0,-999,-99.99,,,-99.99,,2013-09-20 18:22:00,
2013-09-20 14:40:00,67.0,-99.9,29.68,WSW,241,17.0,20.0,-999,-99.99,,,-99.99,,2013-09-20 18:40:00,
2013-09-20 14:52:00,67.0,-99.9,29.69,WSW,238,15.0,23.0,-999,-99.99,,,-99.99,,2013-09-20 18:52:00,
2013-09-20 15:12:00,67.0,-99.9,29.68,WSW,241,17.0,20.0,-999,-99.99,,,-99.99,,2013-09-20 19:12:00,
2013-09-20 15:22:00,67.0,-99.9,29.68,WSW,241,17.0,20.0,-999,-99.99,,,-99.99,,2013-09-20 19:22:00,
2013-09-20 15:32:00,67.0,-99.9,29.68,WSW,241,17.0,20.0,-999,-99.99,,,-99.99,,2013-09-20 19:32:00,
2013-09-20 15:40:00,67.0,-99.9,29.68,WSW,240,22.0,27.0,-999,-99.99,,,-99.99,,2013-09-20 19:40:00,
2013-09-20 16:22:00,67.0,-99.9,29.68,WSW,240,22.0,27.0,-999,-99.99,,,-99.99,,2013-09-20 20:22:00,
2013-09-20 16:32:00,67.0,-99.9,29.68,WSW,240,22.0,27.0,-999,-99.99,,,-99.99,,2013-09-20 20:32:00,
2013-09-20 17:22:00,67.0,-99.9,29.68,WSW,238,20.0,24.0,-999,-99.99,,,-99.99,,2013-09-20 21:22:00,
2013-09-20 17:34:00,67.0,-99.9,29.68,WSW,238,20.0,24.0,-999,-99.99,,,-99.99,,2013-09-20 21:34:00,
2013-09-20 17:40:00,67.0,-99.9,29.69,WSW,242,18.0,21.0,-999,-99.99,,,-99.99,,2013-09-20 21:40:00,
2013-09-20 18:14:00,67.0,-99.9,29.69,WSW,242,18.0,21.0,-999,-99.99,,,-99.99,,2013-09-20 22:14:00,
2013-09-20 18:24:00,67.0,-99.9,29.69,WSW,242,18.0,21.0,-999,-99.99,,,-99.99,,2013-09-20 22:24:00,
2013-09-20 18:33:00,67.0,-99.9,29.69,WSW,242,18.0,21.0,-999,-99.99,,,-99.99,,2013-09-20 22:33:00,
2013-09-20 18:40:00,66.0,-99.9,29.69,WSW,241,14.0,17.0,-999,-99.99,,,-99.99,,2013-09-20 22:40:00,
2013-09-20 19:23:00,66.0,-99.9,29.69,WSW,241,14.0,17.0,-999,-99.99,,,-99.99,,2013-09-20 23:23:00,
2013-09-20 19:34:00,66.0,-99.9,29.69,WSW,241,14.0,17.0,-999,-99.99,,,-99.99,,2013-09-20 23:34:00,
2013-09-20 20:22:00,66.0,-99.9,29.70,WSW,242,15.0,24.0,-999,-99.99,,,-99.99,,2013-09-21 00:22:00,
2013-09-20 20:33:00,66.0,-99.9,29.70,WSW,242,15.0,24.0,-999,-99.99,,,-99.99,,2013-09-21 00:33:00,
2013-09-20 20:52:00,66.0,-99.9,29.70,WSW,242,15.0,24.0,-999,-99.99,,,-99.99,,2013-09-21 00:52:00,
2013-09-20 21:02:00,66.0,-99.9,29.70,WSW,242,15.0,24.0,-999,-99.99,,,-99.99,,2013-09-21 01:02:00,
2013-09-20 21:42:00,65.0,-99.9,29.70,WSW,242,18.0,21.0,-999,-99.99,,,-99.99,,2013-09-21 01:42:00,
2013-09-20 21:52:00,65.0,-99.9,29.70,WSW,242,18.0,21.0,-999,-99.99,,,-99.99,,2013-09-21 01:52:00,
2013-09-20 22:12:00,65.0,-99.9,29.71,WSW,239,15.0,19.0,-999,-99.99,,,-99.99,,2013-09-21 02:12:00,
2013-09-20 22:52:00,64.0,-99.9,29.72,North,356,10.0,21.0,-999,-99.99,,,-99.99,,2013-09-21 02:52:00,
2013-09-20 23:12:00,62.0,-99.9,29.73,NNE,21,23.0,26.0,-999,-99.99,,,-99.99,,2013-09-21 03:12:00,
2013-09-20 23:22:00,62.0,-99.9,-100.00,NNE,20,20.0,26.0,-999,-99.99,,,-99.99,,2013-09-21 03:22:00,
2013-09-20 23:40:00,61.0,-99.9,29.74,NNE,20,20.0,26.0,-999,-99.99,,,-99.99,,2013-09-21 03:40:00,
2013-09-20 23:44:00,62.0,-99.9,-100.00,NNE,20,20.0,26.0,-999,-99.99,,,-99.99,,2013-09-21 03:44:00,
2013-09-20 23:55:00,62.0,-99.9,-100.00,NNE,20,20.0,26.0,-999,-99.99,,,-99.99,,2013-09-21 03:55:00,